Location: El Frío
(10.0713°N, 67.9111°W)
Time: 03:17:51
(UTC+00:00)

Landsat 7 - Pass Details

Date: 11 December 2025
Orbit: 680 x 682 km, 97.9° (Epoch: 15 January)

Event Time Altitude Azimuth Distance (km) Brightness Sun altitude
Rises 22:26:51 0° 167° (SSE) 3,032 7.2 -4.3°
Reaches altitude 10° 22:29:05 10° 167° (SSE) 2,117 6.4 -4.8°
Maximum altitude 22:33:43 86° 79° (E) 686 3.8 -5.9°
Drops below altitude 10° 22:38:22 10° 350° (N) 2,116 6.2 -6.9°
Sets 22:40:36 0° 349° (N) 3,031 7.0 -7.4°
